Theta_e
341 345 352 351 350 349 349 349 350 350 350 352 351 350 350 349 349 347 346 344 344 345 345 344 346 348 349 350 350 349 347 347 348 348 348 348 346 346 347 349 351 350 354
343 347 353 352 351 350 349 350 349 349 350 350 350 349 349 348 345 340 337 336 337 338 340 343 345 345 346 345 347 348 348 349 348 348 348 347 346 344 344 345 351 348 353
342 349 351 352 352 350 350 349 349 349 350 349 349 347 347 341 337 335 335 335 335 335 336 337 338 339 341 343 343 345 345 347 347 348 347 345 342 342 344 346 347 352 354
345 350 351 353 352 350 349 348 348 350 349 348 347 346 341 337 335 335 334 335 335 335 334 334 334 335 336 337 338 339 342 345 346 347 346 344 341 340 343 345 348 350 356
347 350 352 354 352 351 349 349 349 348 347 346 344 342 340 336 335 334 334 335 334 335 336 335 335 335 335 337 339 339 338 339 342 344 344 343 342 340 345 346 349 351 354
343 348 352 353 352 351 351 349 346 344 341 340 339 339 338 336 336 335 334 335 334 335 335 336 336 335 335 337 337 341 343 338 339 338 343 343 344 342 345 347 348 353 356
348 351 351 353 352 351 349 344 342 339 338 337 337 337 337 337 338 337 334 334 335 335 334 335 335 335 336 336 337 339 343 338 337 339 341 342 342 342 346 349 350 354 355
348 351 351 352 351 350 344 342 338 337 336 337 339 340 339 338 336 336 334 334 334 335 335 335 335 336 336 335 336 338 338 341 336 338 340 345 343 347 346 349 351 351 351
347 347 348 348 350 345 343 339 337 336 335 335 334 335 335 335 336 336 335 334 335 333 334 334 334 334 333 334 336 336 334 333 334 340 340 345 343 344 345 345 345 344 342
332 335 343 347 344 341 339 337 336 335 335 334 332 330 331 331 333 333 331 332 333 333 331 331 331 331 331 330 332 333 330 326 328 333 340 339 340 340 342 343 342 342 343
329 331 335 342 342 340 339 336 334 334 333 329 327 328 326 330 330 329 332 332 331 329 329 328 329 328 329 326 327 329 326 327 327 329 334 339 336 336 337 337 338 340 341
325 327 331 339 339 339 339 334 330 329 329 328 328 328 328 330 329 326 327 327 326 326 324 325 325 324 324 326 326 325 327 327 327 328 331 338 335 333 334 335 336 336 336
325 329 329 335 338 339 338 333 329 330 330 330 329 328 328 328 328 327 326 325 325 323 323 322 321 321 324 325 325 325 325 327 328 329 327 334 334 332 334 335 335 335 337
324 325 326 329 334 337 337 334 330 329 330 330 328 328 327 326 326 326 325 325 324 322 322 321 320 322 324 324 324 324 325 327 327 329 328 330 334 333 333 333 333 334 334
322 323 326 328 329 331 331 331 330 330 329 329 328 327 326 325 325 324 325 323 323 321 319 319 319 320 321 322 322 322 325 328 329 330 333 335 335 333 332 332 332 332 333
323 324 326 327 329 329 329 330 330 330 329 330 328 327 326 325 325 322 323 322 321 319 319 319 318 318 319 320 320 323 327 330 332 333 333 334 333 332 331 331 331 331 332
324 326 326 328 328 328 327 327 329 330 328 328 328 328 326 326 325 325 323 322 320 319 319 319 319 319 319 319 320 326 329 330 330 330 331 331 331 327 329 330 331 331 331
324 325 328 325 327 328 327 328 328 329 329 329 329 329 326 325 325 324 322 322 321 319 318 317 317 317 318 319 323 324 326 328 327 328 327 327 327 327 325 326 329 330 330
324 325 327 328 327 327 329 329 329 329 328 330 329 329 327 325 324 324 322 322 322 319 318 318 317 317 317 319 321 322 322 323 324 324 323 323 325 325 325 324 326 328 327
324 324 325 327 328 329 329 330 330 328 328 329 328 328 327 327 325 325 323 323 322 319 318 319 318 318 317 317 317 320 322 322 324 323 322 321 322 322 323 325 326 325 325
325 324 323 323 326 327 327 326 326 325 327 327 327 326 326 326 325 326 324 323 322 319 320 320 318 316 315 317 316 318 319 320 320 322 322 320 319 320 323 323 325 327 327
327 326 323 323 323 326 326 325 326 327 327 327 327 327 327 326 326 325 325 323 322 320 321 321 319 316 315 316 312 312 309 314 318 317 320 319 318 319 320 322 324 325 327
326 325 324 322 323 323 325 326 326 327 327 326 326 325 327 327 326 326 324 324 323 322 319 320 320 318 313 316 317 312 307 305 309 319 316 317 318 318 319 321 323 325 327
326 325 324 324 323 321 322 324 325 323 321 325 325 326 327 327 327 325 325 324 324 322 322 320 320 319 318 314 317 318 318 315 308 307 314 315 317 317 319 320 322 325 326
327 327 329 330 323 321 322 325 325 325 324 325 325 325 329 329 327 325 325 325 324 322 322 322 322 321 320 316 315 315 316 315 315 310 308 311 315 316 318 319 321 322 325
329 329 329 331 329 326 325 326 327 327 326 324 324 323 324 325 325 325 324 325 325 324 323 323 323 322 321 319 318 317 314 312 312 312 310 311 312 315 317 318 319 320 322
Wind_Speed
7 4 6 5 4 3 3 3 3 3 3 6 8 8 8 8 9 11 12 12 12 11 10 10 9 9 9 8 7 4 3 4 5 5 5 4 4 4 3 2 4 8 2
7 7 7 5 4 4 3 3 2 1 5 6 7 6 7 8 10 10 11 12 12 11 11 11 10 8 10 8 8 7 6 4 4 6 6 3 3 5 5 4 5 5 6
8 7 7 5 5 4 4 2 2 3 6 6 6 6 7 8 8 9 11 12 12 12 11 10 9 8 8 8 9 9 7 6 5 5 6 6 5 5 6 5 5 8 7
7 6 5 5 5 4 3 2 4 7 7 7 7 6 7 8 8 10 12 13 12 12 11 10 10 9 9 8 7 6 7 8 6 5 7 5 6 4 7 8 8 8 9
6 5 5 6 5 4 3 4 9 9 9 9 8 6 5 7 8 10 11 12 13 13 13 12 11 10 11 12 10 7 6 6 7 7 6 6 5 4 8 9 10 10 11
6 5 6 5 4 4 7 10 10 9 8 7 5 3 4 6 6 7 8 11 12 13 13 14 13 12 12 13 12 12 8 5 6 5 4 3 7 5 10 11 12 13 12
7 6 7 6 6 8 9 11 10 9 8 8 6 2 2 5 7 8 5 7 10 12 13 13 12 14 14 13 14 14 9 1 7 3 4 4 4 6 9 12 11 8 10
7 6 6 7 8 11 11 10 9 10 10 9 10 11 9 7 8 8 6 7 9 11 12 12 13 13 14 13 12 11 11 9 3 4 3 1 4 7 4 6 2 3 6
6 6 5 6 10 12 11 11 10 9 10 10 10 10 9 8 8 11 11 9 9 9 10 10 11 12 13 13 13 11 9 9 7 4 3 2 5 6 6 7 7 4 1
6 5 3 5 7 7 9 10 10 10 9 9 10 10 8 7 8 9 7 9 10 10 10 11 11 11 12 12 12 10 7 4 5 5 3 5 7 8 9 8 7 5 4
5 4 2 5 7 7 6 8 8 10 9 6 6 9 5 5 6 7 10 10 11 11 11 12 12 12 11 7 9 10 6 3 4 3 2 6 5 6 7 8 8 8 7
2 2 3 5 7 7 5 6 6 6 5 5 6 6 5 5 6 6 7 9 9 11 10 11 11 10 7 5 4 5 3 4 4 3 2 3 4 4 6 6 6 6 8
3 2 2 4 5 5 4 4 3 3 3 3 5 5 5 3 4 4 4 4 5 9 7 9 8 5 7 5 4 4 5 5 3 2 1 5 1 3 5 7 8 8 9
6 4 4 5 5 4 3 3 3 2 2 2 4 5 4 3 4 5 4 4 5 6 7 7 6 7 6 6 6 6 6 5 3 2 1 3 0 4 6 7 9 9 10
6 5 5 4 4 4 4 4 3 3 1 3 3 5 4 4 4 5 4 5 5 6 7 7 7 6 6 6 6 6 6 6 4 1 1 2 6 6 6 7 8 9 9
5 6 6 5 4 4 3 3 3 3 3 2 3 4 5 4 4 4 5 5 6 7 6 7 7 7 6 6 5 4 4 3 2 2 3 5 8 7 6 8 8 9 9
6 7 7 6 5 4 4 3 3 3 2 2 2 3 4 4 5 5 4 5 6 6 8 6 7 6 7 5 3 2 2 3 4 4 3 3 2 4 8 8 9 10 10
7 8 7 5 6 6 4 3 3 3 2 2 1 1 3 4 4 4 5 5 6 6 6 6 6 7 7 4 2 3 3 3 5 4 4 4 4 5 5 7 10 10 10
8 7 7 6 5 5 4 3 2 3 3 2 1 1 1 3 3 4 5 5 6 6 7 7 7 7 7 4 2 3 4 4 3 3 4 5 5 5 5 7 10 10 8
5 4 4 3 4 4 3 1 2 2 3 4 3 2 1 1 2 3 4 5 5 5 6 7 8 7 6 6 4 1 2 2 2 2 3 3 5 6 6 7 7 5 6
8 4 4 4 3 3 2 2 2 4 3 4 4 4 4 3 3 3 3 4 4 5 6 7 6 7 7 8 4 4 4 5 4 3 3 3 6 7 7 6 5 4 4
11 7 3 4 2 4 2 0 2 2 2 3 3 4 5 5 5 3 3 4 4 4 5 5 6 6 5 6 6 4 3 2 3 5 3 4 7 7 7 6 7 7 6
11 6 7 7 3 4 3 2 2 2 3 3 4 4 5 6 6 5 4 4 4 4 4 5 4 5 6 4 5 4 4 5 9 1 5 6 8 7 7 6 7 7 6
13 11 13 14 8 6 6 4 5 4 4 3 4 3 4 5 6 6 5 5 4 4 5 4 4 4 4 5 2 1 2 4 4 6 4 6 7 8 8 7 6 6 6
20 17 14 13 6 8 7 7 5 5 3 3 3 4 4 5 5 7 6 6 6 5 5 6 6 5 4 5 4 5 4 4 5 6 10 8 8 7 7 6 6 5 6
17 14 10 10 9 8 8 7 7 6 4 4 4 4 4 3 4 6 7 7 7 7 7 7 7 7 6 6 6 6 6 6 7 6 9 11 12 9 8 6 7 6 5
Wind_Direction
187 137 153 154 152 136 114 94 65 47 11 48 44 47 51 49 42 33 27 19 12 9 7 2 16 10 8 11 14 5 341 348 344 349 347 351 358 349 309 279 261 251 259
126 148 160 157 157 138 121 100 98 62 28 42 52 64 61 55 46 36 23 13 4 360 359 359 8 6 356 351 355 354 350 348 329 320 317 292 296 328 320 286 260 283 274
119 141 154 165 153 135 122 131 80 46 58 52 70 70 72 67 60 47 37 29 19 8 1 0 357 359 355 353 348 344 329 330 313 284 284 274 297 324 322 316 273 264 260
122 137 149 151 138 129 123 113 72 62 51 52 59 73 75 58 49 38 35 33 30 31 28 20 12 7 358 348 337 327 318 319 313 290 246 258 270 284 290 293 285 272 245
129 143 145 147 141 139 132 81 75 73 68 67 65 70 70 51 36 25 25 19 14 11 7 9 6 9 7 7 1 332 299 292 306 286 277 257 254 249 283 280 264 260 235
117 136 143 140 143 116 104 94 89 80 69 61 56 62 65 44 23 11 13 9 3 1 2 6 12 11 7 3 359 349 308 264 265 280 286 290 272 337 291 284 275 269 217
128 135 133 148 134 126 111 105 93 75 57 40 14 354 94 31 3 348 357 2 354 3 4 2 359 358 357 355 354 355 18 343 277 265 291 294 280 297 287 278 275 264 183
121 121 120 126 128 124 119 103 85 68 54 53 48 58 63 47 37 32 41 19 19 360 1 354 356 355 354 351 351 358 29 8 267 321 288 265 14 322 40 26 100 147 174
113 120 123 130 131 128 119 102 86 70 63 63 56 56 56 53 47 51 40 24 17 2 5 6 2 358 357 352 348 347 356 357 336 34 25 33 41 35 37 39 49 56 43
94 87 115 146 146 144 134 107 91 76 71 67 52 44 46 49 49 41 32 31 24 20 16 7 1 357 356 353 352 351 353 318 345 355 35 51 30 37 34 31 30 24 355
85 57 40 174 158 156 133 106 97 83 68 58 48 40 42 35 42 32 38 32 35 20 11 6 359 351 344 335 346 350 315 345 351 341 321 34 32 47 39 27 18 0 339
139 118 24 190 168 164 140 126 106 92 73 58 42 31 33 43 42 35 47 45 30 15 1 1 357 342 322 328 328 318 333 323 331 313 322 326 353 23 27 17 11 4 347
164 160 124 157 175 185 161 146 120 98 80 76 56 37 46 44 30 26 22 19 7 8 356 350 348 348 341 328 323 327 319 300 312 286 54 338 316 13 17 17 2 358 356
183 162 147 107 148 173 170 174 135 122 98 66 58 35 29 30 28 18 17 15 6 360 351 349 342 339 329 323 317 318 311 306 300 286 166 323 281 22 15 7 358 348 341
187 155 141 137 124 149 168 161 165 141 117 60 54 45 27 25 21 2 13 7 5 358 352 346 344 334 327 323 311 317 317 320 310 281 236 90 79 48 18 360 349 342 341
186 172 160 164 149 161 137 177 185 168 144 102 61 42 43 27 21 15 14 8 7 1 359 345 349 337 326 318 313 323 325 341 76 74 88 93 58 36 13 351 340 335 332
194 179 182 175 149 149 147 168 179 179 148 83 65 47 45 26 33 9 23 16 5 356 356 355 352 342 336 321 316 345 31 70 81 73 62 45 53 37 360 344 329 327 326
190 189 180 173 163 153 158 165 184 183 162 142 112 27 35 40 34 13 8 16 4 355 2 2 0 351 357 352 17 57 67 70 72 74 46 5 353 334 316 331 322 322 327
187 182 181 181 169 157 158 193 187 187 209 189 208 248 26 39 18 358 12 15 354 351 6 2 5 1 5 3 47 73 79 73 53 56 37 13 353 324 318 322 306 308 316
173 177 180 195 206 189 176 192 220 234 223 224 223 240 265 326 341 343 1 4 347 350 5 7 2 9 9 350 310 28 29 64 42 37 27 3 355 328 309 301 301 282 303
151 185 169 195 241 240 224 255 268 258 243 237 235 230 244 258 280 326 343 346 341 345 351 359 357 360 13 3 308 264 258 235 269 311 319 335 348 339 318 306 293 298 282
165 177 153 222 227 250 249 323 301 319 292 294 254 234 241 246 253 267 315 333 338 333 341 354 4 353 17 17 352 297 332 206 222 311 302 317 337 327 328 315 309 294 282
162 134 47 299 234 199 244 196 214 197 223 239 237 246 234 240 248 251 273 295 298 297 328 334 342 352 352 20 11 349 327 353 329 12 314 311 329 329 324 313 309 301 276
146 142 171 216 208 190 192 206 229 259 269 273 267 251 261 257 250 246 252 262 275 299 303 316 315 308 301 339 330 15 288 310 332 316 312 317 312 320 328 311 302 289 276
167 179 210 193 164 172 185 209 225 238 253 269 252 262 268 271 261 242 245 258 267 269 279 280 287 289 287 297 308 315 298 280 261 281 307 320 312 315 319 303 312 285 275
180 187 196 188 194 175 181 199 220 233 245 257 258 271 273 301 265 239 250 256 262 273 273 278 278 272 276 274 280 275 275 289 295 283 289 301 311 312 309 287 289 279 275